Regional Weather Roundup
Issued by NWS

Home | Current Version | Previous Version | Graphics & Text | Print | Product List | Glossary On
Versions: 1 2 3 4 5 6 7 8 9 10 11 12 13 14 15 16 17 18 19 20 21 22 23 24 25 26 27 28 29 30 31 32 33 34 35 36 37 38 39 40 41 42 43 44 45 46 47 48 49 50
000
ASUS43 KLOT 260700
RWRIL

ILLINOIS REGIONAL WEATHER ROUNDUP
NATIONAL WEATHER SERVICE CHICAGO/ROMEOVILLE IL
200 AM CDT SUN APR 26 2015

NOTE: "FAIR" INDICATES FEW OR NO CLOUDS BELOW 12,000 FEET WITH NO
SIGNIFICANT WEATHER AND/OR OBSTRUCTIONS TO VISIBILITY.

* THESE STATIONS ARE NOT UNDER NWS QUALITY CONTROL. THEY ALSO MAY NOT
  REPORT WEATHER SUCH AS PRECIPITATION OR FOG.

ILZ001-002-007-009-015-016-024-260800-
NORTHWEST ILLINOIS

CITY           SKY/WX    TMP DP  RH WIND       PRES   REMARKS
MOLINE         PTCLDY    42  33  70 NE6       29.91S
$$

ILZ003-004-008-010-011-017-018-260800-
NORTH CENTRAL ILLINOIS

CITY           SKY/WX    TMP DP  RH WIND       PRES   REMARKS
ROCKFORD       NOT AVBL
$$

ILZ005-006-012>014-019>023-260800-
NORTHEAST ILLINOIS

CITY           SKY/WX    TMP DP  RH WIND       PRES   REMARKS
CHICAGO-OHARE  CLEAR     38  29  70 N7        29.88R WCI  33
CHICAGO-MIDWAY NOT AVBL
AURORA         MOCLDY    39  27  62 N9        29.89R WCI  33
WAUKEGAN       NOT AVBL
DUPAGE AIRPORT CLEAR     36  28  73 N7        29.88R WCI  30
WHEELING       CLEAR     38  29  70 N5        29.90R WCI  34
NORTHERLY ISL    N/A     41  34  76 N12         N/A
$$

LMZ740>746-260800-
SOUTHERN LAKE MICHIGAN

STATION/POSITION SKY/WX   TEMP    WIND        PRES    VSBY  WAVE
                          AIR SEA DIR/SP/G                  HT/PER
                          (F)     (DEG/KT/KT) (MB)    (MI)  (FT/S)
HARRISON CRIB              40      10/ 13/ 15   N/A
BURNHAM HARBOR             41     350/  8/ 14   N/A
CALUMET HARBOR             41     360/  5/  7   N/A
BURNS HARBOR               41      40/  5/  7 1011.2S
MICHIGAN CITY              41      20/  6/  7   N/A
MICHIGAN CITY 6N           39 45   40/  6/  8   N/A           2/ 5
$$

ILZ025>027-034>036-040-047-049-050-058-095>099-260800-
WEST-CENTRAL ILLINOIS

CITY           SKY/WX    TMP DP  RH WIND       PRES   REMARKS
$$

ILZ028>032-037-038-041>044-048-051>054-059>061-260800-
CENTRAL ILLINOIS

CITY           SKY/WX    TMP DP  RH WIND       PRES   REMARKS
PEORIA         NOT AVBL
SPRINGFIELD    CLOUDY    47  41  80 NE12      29.83S
TAYLORVILLE    NOT AVBL
$$

ILZ033-039-045-046-055>057-062-063-260800-
EAST-CENTRAL ILLINOIS

CITY           SKY/WX    TMP DP  RH WIND       PRES   REMARKS
CHAMPAIGN      CLOUDY    45  39  79 NE13      29.80R
MATTOON        CLOUDY    45  40  82 NE14      29.77R
$$

ILZ079-100>102-260800-
SOUTHWEST ILLINOIS

CITY           SKY/WX    TMP DP  RH WIND       PRES   REMARKS
CAHOKIA*       CLOUDY    49  45  86 N14G20    29.79R
$$

ILZ064>066-069>071-074>076-080>082-084>086-088>090-092>094-260800-
SOUTH-CENTRAL ILLINOIS

CITY           SKY/WX    TMP DP  RH WIND       PRES   REMARKS
CARBONDALE     CLOUDY    51  47  86 N12       29.72R
$$

ILZ067-068-072-073-078-083-087-091-260800-
SOUTHEAST ILLINOIS

CITY           SKY/WX    TMP DP  RH WIND       PRES   REMARKS
LAWRENCEVILLE  CLOUDY    47  43  86 NE12      29.74R
$$

ABBREVIATIONS USED IN REMARKS
   TC - TEMPERATURE IN CELSIUS
  WCI - WIND CHILL INDEX
   HX - HEAT INDEX
  VSB - VISIBILITY
$$




USA.gov is the U.S. government's official web portal to all federal, state and local government web resources and services.